Flag for Israel Weather past 2 weeks in Ashdod, Israel

Now
95 °F

Sunny.


Feels Like: 91 °F
Forecast: 69 / 80 °F
Wind: 13 mph from Northwest

Location: Ben Gurion International Airport

Current Time: May 25, 2015 at 3:22:32 PM

Latest Report: May 25, 2015 at 2:50 PM


Visibility: 10 mi

Pressure: 29.86 "Hg

Humidity: 19%

Dew point: 46 °F

Location of AshdodLocation

Historic Weather in Ashdod — Graph

°F

Ashdod temperature yesterday

Maximum temperature yesterday: 93 °F (at 1:20 PM)
Minimum temperature yesterday: 63 °F (at 5:50 AM)
Average temperature yesterday: 78 °F

Past Weeks' High & Low Weather Summary

 TemperatureHumidityPressure
High106 °F (May 18, 4:50 PM)88% (May 11, 5:20 AM)30.18 "Hg (May 11, 5:20 AM)
Low59 °F (May 16, 4:50 AM)6% (May 18, 12:20 PM)29.71 "Hg (May 19, 1:20 AM)
Average75 °F56%29.92 "Hg
* Reported May 10 2:20 PM — May 25 2:20 PM, Ashdod, Weather by CustomWeather, © 2015

Note: Actual official high and low records may vary slightly from our data, if they occured in-between our weather recording intervals... More about our weather records

Advertising

Ashdod weather history for previous 24 hours

 ConditionsComfort  
Time TempWeatherWind HumidityBarometerVisibility
2:20 PM
Mon, May 25
97 °FSunny.13 mph19%29.89 "Hg10 mi
1:50 PM95 °FSunny.14 mph19%29.89 "Hg10 mi
1:20 PM99 °FPassing clouds.9 mph17%29.89 "HgN/A
12:50 PM99 °FPassing clouds.6 mph18%29.89 "HgN/A
12:20 PM99 °FPassing clouds.6 mph18%29.89 "HgN/A
11:50 AM97 °FSunny.3 mph20%29.92 "Hg10 mi
11:20 AM95 °FSunny.2 mph23%29.92 "Hg10 mi
10:50 AM91 °FSunny.5 mph26%29.92 "Hg10 mi
10:20 AM90 °FSunny.3 mph29%29.92 "Hg10 mi
9:50 AM88 °FSunny.3 mph31%29.92 "Hg10 mi
9:20 AM88 °FSunny.2 mph31%29.92 "Hg10 mi
8:50 AM84 °FSunny.3 mph33%29.92 "Hg10 mi
8:20 AM82 °FSunny.7 mph37%29.92 "Hg10 mi
7:50 AM79 °FSunny.8 mph45%29.92 "Hg10 mi
7:20 AM77 °FSunny.1 mph36%29.89 "Hg10 mi
6:50 AM73 °FSunny.6 mph41%29.89 "Hg10 mi
6:20 AM70 °FClear.2 mph46%29.89 "Hg10 mi
5:50 AM73 °FClear.2 mph41%29.86 "Hg10 mi
5:20 AM72 °FClear.3 mph41%29.86 "Hg10 mi
4:50 AM72 °FClear.3 mph47%29.86 "Hg10 mi
4:20 AM72 °FClear.3 mph44%29.86 "Hg10 mi
3:50 AM73 °FClear.2 mph38%29.86 "Hg10 mi
3:20 AM72 °FClear.1 mph44%29.86 "Hg10 mi
2:50 AM72 °FClear.2 mph44%29.86 "Hg10 mi
2:20 AM73 °FClear.3 mph41%29.86 "Hg10 mi
1:50 AM75 °FClear.3 mph39%29.86 "Hg10 mi
1:20 AM75 °FClear.2 mph41%29.86 "Hg10 mi
12:20 AM75 °FClear.1 mph44%29.89 "Hg10 mi
11:50 PM
Sun, May 24
75 °FClear.2 mph44%29.89 "Hg10 mi
11:20 PM77 °FClear.2 mph44%29.89 "Hg10 mi
10:50 PM77 °FClear.3 mph42%29.92 "Hg10 mi
10:20 PM79 °FClear.3 mph42%29.92 "Hg10 mi
9:50 PM79 °FClear.1 mph42%29.92 "Hg10 mi
9:20 PM81 °FClear.3 mph39%29.92 "Hg10 mi
8:50 PM81 °FClear.3 mph37%29.92 "Hg10 mi
8:20 PM82 °FSunny.3 mph35%29.92 "Hg10 mi
7:50 PM82 °FSunny.6 mph35%29.92 "Hg10 mi
7:20 PM84 °FSunny.8 mph33%29.92 "Hg10 mi
6:50 PM86 °FSunny.8 mph31%29.92 "Hg10 mi
6:20 PM88 °FSunny.8 mph29%29.92 "Hg10 mi
5:50 PM88 °FSunny.8 mph29%29.92 "Hg10 mi
5:20 PM88 °FSunny.10 mph31%29.92 "Hg10 mi
4:50 PM88 °FSunny.14 mph29%29.92 "Hg10 mi
4:20 PM90 °FSunny.12 mph27%29.92 "Hg10 mi
3:50 PM90 °FSunny.13 mph27%29.89 "Hg10 mi
3:20 PM91 °FSunny.10 mph24%29.89 "Hg10 mi
Weather by CustomWeather, © 2015

See weather overviewHow to use our weather pages